Hickory, NC

4:06 AM EDT on July 21, 2017 (GMT -0400)
Hickory Regional

Weather History for KHKY - June, 2013

Change the Weather History Date:

Saturday, June 29, 2013

  Actual Average Record
Temperature  
Mean Temperature 75 °F -  
Max Temperature 86 °F 86 °F 99 °F (1959)
Min Temperature 66 °F 64 °F 53 °F (1974)
Cooling Degree Days 10    
Growing Degree Days 25 (Base 50)    
Moisture  
Dew Point 65 °F    
Average Humidity 73    
Maximum Humidity 94    
Minimum Humidity 47    
Precipitation  
Precipitation 0.17 in - - ()
Sea Level Pressure  
Sea Level Pressure 29.64 in    
Wind  
Wind Speed 3 mph (SW)    
Max Wind Speed 9 mph    
Max Gust Speed 21 mph    
Visibility 9 miles    
Events Rain , Thunderstorm    
Averages and records for this station are not official NWS values.
T = Trace of Precipitation, MM = Missing Value Source: NWS Daily Summary

Daily Weather History Graph

Daily Weather History Graph

Search for Another Location

Airport or City:

Trip Planner

Search our weather history database for the weather conditions in past years. The results will help you decide how hot, cold, wet, or windy it might be!

Date:

Astronomy

Jun. 29, 2013 Rise Set
Actual Time 6:12 AM EDT 8:45 PM EDT
Civil Twilight 5:42 AM EDT 9:15 PM EDT
Nautical Twilight 5:05 AM EDT 9:52 PM EDT
Astronomical Twilight 4:23 AM EDT 10:34 PM EDT
Moon 12:27 AM EDT (6/29) 1:07 PM EDT (6/29)
Length of Visible Light 15h 33m
Length of Day
14h 33m
Waning Gibbous, 56% of the Moon is Illuminated
Jun 29
Waning Gibbous
Jun 30
Last Quarter
Jul 8
New
Jul 15
First Quarter
Jul 22
Full

Hourly Weather History & Observations

Time (EDT) Temp. Heat Index Dew Point Humidity Pressure Visibility Wind Dir Wind Speed Gust Speed Precip Events Conditions
12:06 AM 71.6 °F - 69.8 °F 94% 29.71 in 6.0 mi Calm Calm - N/A   Overcast
12:53 AM 72.0 °F - 69.1 °F 91% 29.63 in 10.0 mi Calm Calm - N/A   Overcast
1:53 AM 71.1 °F - 66.9 °F 87% 29.59 in 10.0 mi Calm Calm - N/A   Partly Cloudy
2:53 AM 70.0 °F - 66.0 °F 87% 29.59 in 10.0 mi West 3.5 mph - N/A   Partly Cloudy
3:53 AM 69.1 °F - 66.0 °F 90% 29.60 in 10.0 mi Calm Calm - N/A   Clear
4:53 AM 69.1 °F - 64.9 °F 87% 29.60 in 10.0 mi Calm Calm - N/A   Partly Cloudy
5:53 AM 66.9 °F - 64.0 °F 90% 29.62 in 10.0 mi Calm Calm - N/A   Clear
6:53 AM 68.0 °F - 64.0 °F 87% 29.63 in 10.0 mi NNW 4.6 mph - N/A   Clear
7:53 AM 69.1 °F - 64.9 °F 87% 29.65 in 10.0 mi WSW 3.5 mph - N/A   Clear
8:53 AM 71.1 °F - 64.0 °F 78% 29.65 in 10.0 mi Calm Calm - N/A   Mostly Cloudy
9:53 AM 75.9 °F - 64.0 °F 67% 29.64 in 10.0 mi Calm Calm - N/A   Partly Cloudy
10:53 AM 79.0 °F - 66.9 °F 66% 29.63 in 10.0 mi Variable 6.9 mph - N/A   Scattered Clouds
11:53 AM 80.1 °F 81.9 °F 64.9 °F 60% 29.64 in 10.0 mi SW 6.9 mph - N/A   Mostly Cloudy
12:53 PM 82.9 °F 84.0 °F 63.0 °F 51% 29.64 in 10.0 mi SSW 9.2 mph - N/A   Scattered Clouds
1:53 PM 82.9 °F 84.6 °F 64.9 °F 54% 29.63 in 10.0 mi Variable 6.9 mph - N/A   Mostly Cloudy
2:53 PM 82.9 °F 85.0 °F 66.0 °F 56% 29.62 in 10.0 mi Variable 6.9 mph - N/A   Scattered Clouds
3:53 PM 84.0 °F 84.9 °F 63.0 °F 49% 29.61 in 10.0 mi SSW 5.8 mph - N/A   Scattered Clouds
4:53 PM 82.9 °F 83.3 °F 61.0 °F 47% 29.61 in 10.0 mi South 5.8 mph - N/A   Partly Cloudy
5:53 PM 84.0 °F 84.5 °F 62.1 °F 47% 29.61 in 10.0 mi SSW 9.2 mph - N/A   Clear
6:53 PM 82.9 °F 84.4 °F 64.0 °F 53% 29.61 in 10.0 mi SSW 9.2 mph - N/A   Clear
7:53 PM 80.1 °F 81.7 °F 64.0 °F 58% 29.63 in 10.0 mi Variable 5.8 mph - N/A   Partly Cloudy
8:53 PM 77.0 °F - 64.0 °F 64% 29.64 in 10.0 mi SSW 5.8 mph - N/A   Mostly Cloudy
9:53 PM 73.9 °F - 64.9 °F 73% 29.66 in 10.0 mi South 9.2 mph 20.7 mph N/A Thunderstorm Thunderstorm
10:37 PM 69.8 °F - 64.4 °F 83% 29.74 in 2.5 mi Calm Calm - 0.11 in Rain Heavy Rain
10:53 PM 69.1 °F - 66.0 °F 90% 29.68 in 4.0 mi Calm Calm - 0.17 in Rain Light Rain
11:53 PM 70.0 °F - 66.9 °F 90% 29.68 in 10.0 mi Variable 3.5 mph - 0.00 in   Mostly Cloudy